Location: Darlington Observatory
(36.4817°N, 105.8156°W)
Time: 21:31:03
(UTC-07:00)

Daily predictions for brighter satellites

Satellite Brightness Start Highest point End
(mag) Time Altitude Azimuth Time Altitude Azimuth Time Altitude Azimuth
ATLAS 2A CENTAUR R/B 3.1 18:11:42 10° SSW 18:12:59 13° SSE 18:14:55 10° SE
ERBS 2.3 18:11:59 10° NW 18:15:28 89° NE 18:18:54 10° SE
Cosmos 1992 Rocket 4.0 18:11:09 10° NNW 18:16:22 65° ENE 18:21:33 10° SSE
Cosmos 407 Rocket 3.8 18:11:47 10° S 18:16:43 45° ESE 18:21:44 10° NNE
Cosmos 1346 Rocket 3.0 18:15:35 10° NNW 18:19:32 76° W 18:23:23 10° S
ALOS 3.4 18:16:14 10° ESE 18:19:51 23° ENE 18:23:29 10° NNE
deb Kosmos-1763 4.2 18:19:40 10° S 18:23:24 59° ESE 18:27:09 10° NNE
Meteor 1-25 Rocket 4.2 18:18:00 10° S 18:23:32 68° E 18:29:09 10° NNE
Cosmos 1975 Rocket 3.2 18:23:06 10° N 18:27:25 81° W 18:31:44 10° S
SKYMED 2 4.3 18:23:54 10° N 18:28:10 58° WNW 18:32:24 10° SSW
Cosmos 1812 2.7 18:31:03 10° N 18:34:54 64° E 18:38:43 10° SSE
Cosmos 1238 Rocket 4.0 18:33:56 10° NE 18:35:12 14° ENE 18:35:12 14° ENE
Helios 1B rocket 4.1 18:38:47 14° E 18:38:54 14° E 18:41:09 10° SE
Cosmos 1190 Rocket 4.0 18:36:09 10° SSW 18:41:19 87° WNW 18:46:33 10° NNE
Cosmos 1140 Rocket 4.1 18:40:09 10° SSE 18:44:40 32° E 18:49:13 10° NE
Cosmos 1536 Rocket 3.8 18:41:57 10° N 18:46:16 47° E 18:50:34 10° SSE
Cosmos 2219 4.4 18:46:07 10° SE 18:50:04 19° E 18:51:31 18° E
Spot 2 Rocket 3.9 18:47:36 10° SE 18:52:14 38° ENE 18:56:53 10° N
Resurs 01 Rocket 2.1 18:48:25 10° SE 18:52:27 36° ENE 18:56:30 10° N
Cosmos 44 Rocket 4.1 18:48:19 10° NW 18:52:54 52° WSW 18:57:24 10° S
METEOR-M 4.2 18:48:11 10° S 18:53:31 82° WSW 18:58:54 10° NNW
Tiangong 2 1.8 18:50:40 10° NW 18:53:34 37° NNE 18:54:42 26° ENE
NOAA 12 4.3 18:48:16 10° S 18:53:35 80° WSW 18:58:56 10° NNW
Nadezhda 1 Rocket 4.2 18:49:07 10° N 18:55:11 72° W 19:01:12 10° S
Cosmos 1602 3.9 18:53:06 10° SSE 18:56:47 45° E 19:00:30 10° NNE
Cosmos 2360 Rocket 2.9 18:52:14 10° N 18:57:19 33° ENE 19:00:37 19° ESE
Cosmos 1980 Rocket 4.3 18:53:03 10° NW 18:57:56 30° WSW 19:02:48 10° SSW
GEOS 3 Rocket 3.8 18:55:05 10° NNE 19:00:19 74° NW 19:05:35 10° SW
DNEPR-1 R/B 3.3 18:56:24 10° NNW 19:00:37 71° ENE 19:04:45 11° SE
HJ-1C 3.3 19:00:00 10° SSE 19:03:19 63° ENE 19:06:40 10° N
Cosmos 2181 Rocket 4.0 19:00:28 10° N 19:06:37 59° E 19:12:50 10° SSE
BREEZE-M DEB (TANK) 3.6 19:06:19 10° NNW 19:08:46 26° NE 19:09:29 25° ENE
SL-19 R/B 4.3 19:03:57 10° SSE 19:09:27 63° ENE 19:15:16 10° N
Cosmos 1954 Rocket 3.9 19:04:24 10° SSW 19:09:33 79° ESE 19:14:47 10° NNE
CENTAUR R/B 4.1 19:02:18 10° NW 19:09:56 48° WSW 19:17:51 10° S
Cosmos 1633 2.4 19:07:03 10° S 19:10:43 78° E 19:14:25 10° N
Longmarch 3A Rocket 3.4 19:11:30 10° SSW 19:12:06 11° S 19:12:06 11° S
SJ-6B 3.5 19:08:49 10° S 19:12:49 57° W 19:16:45 10° NNW
Cosmos 1833 4.1 19:08:54 10° SSW 19:14:37 82° ESE 19:20:18 10° NNE
Cosmos 1300 Rocket 3.4 19:11:57 10° S 19:16:20 79° E 19:20:46 10° N
Cosmos 44 4.1 19:12:44 10° NW 19:16:54 44° WSW 19:20:58 10° S
Resurs 1-3 3.6 19:13:07 10° SSE 19:17:25 59° ENE 19:21:44 10° N
ASTRO E2 4.4 19:16:56 10° WSW 19:20:18 26° SSW 19:21:53 20° SSE
Cosmos 2333 Rocket 4.3 19:20:11 10° NNE 19:20:34 11° NNE 19:20:34 11° NNE
TSX-5 4.1 19:19:34 10° SW 19:22:43 49° WNW 19:24:36 20° N
Cosmos 2184 Rocket 4.2 19:18:11 10° SSE 19:24:11 46° E 19:30:09 10° NNE
FengYun 1-2 T 4.2 19:18:58 10° SSE 19:24:27 83° WSW 19:29:58 10° NNW
Cosmos 2074 Rocket 4.1 19:18:37 10° SSE 19:24:34 48° E 19:30:33 10° NNE
Cosmos 1709 Rocket 4.3 19:19:35 10° SSW 19:25:48 67° W 19:31:58 10° N
BREEZE-M DEB (TANK) 2.9 19:21:35 10° NW 19:27:53 74° SW 19:28:34 51° SSE
NOSS 8 (E) 4.3 19:25:05 10° SSW 19:28:26 73° SE 19:28:26 73° SE
Gbstr 26 Del rocket 2.4 19:26:07 10° SW 19:29:55 73° SE 19:29:58 73° SE
SL-16 R/B 3.1 19:24:29 10° NNW 19:29:56 48° WSW 19:35:20 10° S
CZ-3C R/B 3.5 19:31:22 10° SW 19:32:29 10° SSW 19:33:24 10° SSW
Meteor 1-19 Rocket 4.1 19:27:39 10° N 19:33:21 84° E 19:39:06 10° S
Cosmos 1340 3.2 19:31:01 10° NNW 19:34:45 59° W 19:38:28 10° S
Cosmos 1536 2.6 19:33:08 10° S 19:37:08 82° E 19:37:18 79° NE
Cosmos 1461 3.6 19:35:32 10° NW 19:39:25 49° WSW 19:41:24 26° S
Meteor 1-5 Rocket 4.3 19:35:36 10° S 19:41:24 58° E 19:47:14 10° NNE
BREEZE-M DEB (TANK) 3.0 19:38:39 10° WSW 19:42:08 52° W 19:42:08 52° W
Okean 1 Rocket 3.5 19:40:56 10° SSW 19:45:22 64° W 19:49:50 10° N
Helios 1A 3.4 19:48:26 51° N 19:48:26 51° N 19:51:35 10° N
CZ-2D R/B 3.6 19:48:13 58° NW 19:48:13 58° NW 19:51:26 10° NNW
Cosmos 2322 Rocket 3.9 19:43:29 10° NW 19:48:23 32° WSW 19:53:15 10° SSW
Cosmos 1741 Rocket 3.8 19:43:13 10° SSW 19:48:26 82° ESE 19:50:15 42° NNE
OAO 3 Copernicus 4.3 19:44:31 10° W 19:49:34 69° S 19:49:53 66° SSE
ALOS 4.0 19:52:57 10° SSW 19:57:05 31° W 20:01:14 10° NW
DELTA 2 R/B (1) 3.4 19:52:36 10° WNW 19:58:14 85° NNE 19:58:28 82° ENE
H-2A R/B 4.2 19:57:12 23° SW 19:58:48 35° W 20:02:14 10° NNW
Cosmos 2322 3.7 19:54:01 10° NNW 19:59:46 83° WSW 20:00:58 57° S
Meteor 1-23 Rocket 4.1 19:55:08 10° N 20:00:58 84° E 20:01:46 68° SSE
Okean 1-7 Rocket 4.1 19:58:37 10° NNW 20:02:21 56° NW 20:02:21 56° NW
Cosmos 1570 Rocket 4.4 19:58:09 10° NNW 20:02:11 53° N 20:02:11 53° N
Meteor 2-4 Rocket 4.0 20:05:40 10° NNW 20:11:09 62° W 20:13:14 36° SSW
COSMOS 2428 3.4 20:06:07 10° NNW 20:10:00 42° N 20:10:00 42° N
Cosmos 2237 4.4 20:06:41 10° NNW 20:11:31 64° N 20:11:31 64° N
Helios 1B rocket 3.9 20:15:08 35° W 20:15:08 35° W 20:18:12 10° SW
Cosmos 2237 Rocket 4.4 20:19:07 10° N 20:19:50 13° N 20:19:50 13° N
Resurs 01 Rocket 4.3 20:26:07 10° SW 20:29:01 17° W 20:31:55 10° NW
Cosmos 2219 3.9 20:28:10 10° SW 20:33:37 52° WNW 20:33:37 52° WNW
Cosmos 2360 Rocket 3.8 20:36:19 10° NW 20:41:11 30° WSW 20:42:30 27° SW
Cosmos 2219 Rocket 4.2 20:39:44 10° NNW 20:41:19 19° NNW 20:41:19 19° NNW
